This demonstration page uses our WeatherBlox Daily Observations layout. Learn more.

Hourly Observations for May 12, 2018

Temp ( °F °C ) Dew Point ( °F °C ) Humidity (%) Winds ( mph kmh ) Pressure ( in mb ) Visibility ( mi km ) Precip ( " mm )
12:15 am 00:15 Clear 64 18 59 15 83 83 Calm 30.06 1018 10 16.09344 0 0
12:35 am 00:35 Clear 64 18 59 15 83 83 Calm 30.06 1018 10 16.09344 0 0
12:55 am 00:55 Clear 64 18 57 14 78 78 Calm 30.06 1018 10 16.09344 0 0
1:15 am 01:15 Clear 64 18 59 15 83 83 Calm 30.03 1017 10 16.09344 0 0
1:35 am 01:35 Clear 63 17 59 15 88 88 Calm 30.03 1017 10 16.09344 0 0
1:55 am 01:55 Clear 63 17 59 15 88 88 Calm 30.03 1017 10 16.09344 0 0
2:15 am 02:15 Clear 64 18 59 15 83 83 Calm 30.03 1017 10 16.09344 0 0
2:35 am 02:35 Clear 64 18 59 15 83 83 Calm 30 1016 10 16.09344 0 0
2:55 am 02:55 Clear 64 18 59 15 83 83 Calm 30.03 1017 10 16.09344 0 0
3:15 am 03:15 Clear 64 18 59 15 83 83 N 3 6 30.03 1017 10 16.09344 0 0
3:35 am 03:35 Clear 64 18 55 13 73 73 NNE 10 17 30.03 1017 10 16.09344 0 0
3:55 am 03:55 Clear 64 18 55 13 73 73 NNE 7 11 30.03 1017 10 16.09344 0 0
4:15 am 04:15 Clear 64 18 55 13 73 73 NNE 7 11 30.03 1017 10 16.09344 0 0
4:35 am 04:35 Clear 63 17 55 13 77 77 NNE 6 9 30.03 1017 10 16.09344 0 0
4:55 am 04:55 Clear 63 17 54 12 73 73 NNE 8 13 30.06 1018 10 16.09344 0 0
5:15 am 05:15 Clear 63 17 52 11 68 68 NNE 8 13 30.06 1018 10 16.09344 0 0
5:35 am 05:35 Clear 61 16 52 11 72 72 NNE 5 7 30.06 1018 10 16.09344 0 0
5:55 am 05:55 Clear 61 16 52 11 72 72 NNE 6 9 30.06 1018 10 16.09344 0 0
6:15 am 06:15 Sunny 61 16 52 11 72 72 NNE 5 7 30.06 1018 10 16.09344 0 0
6:35 am 06:35 Sunny 61 16 52 11 72 72 NNE 8 13 30.09 1019 10 16.09344 0 0
6:55 am 06:55 Sunny 61 16 52 11 72 72 NNE 9 15 30.09 1019 10 16.09344 0 0
7:15 am 07:15 Sunny 59 15 52 11 77 77 NNE 10 17 30.09 1019 10 16.09344 0 0
7:35 am 07:35 Sunny 59 15 52 11 77 77 NNE 8 13 30.09 1019 10 16.09344 0 0
7:55 am 07:55 Sunny 59 15 52 11 77 77 NNE 8 13 30.09 1019 10 16.09344 0 0
8:15 am 08:15 Sunny 59 15 54 12 82 82 NNE 6 9 30.12 1020 10 16.09344 0 0
8:35 am 08:35 Sunny 59 15 54 12 82 82 NNE 6 9 30.12 1020 10 16.09344 0 0
8:55 am 08:55 Sunny 61 16 54 12 77 77 NNE 6 9 30.12 1020 10 16.09344 0 0
9:15 am 09:15 Sunny 61 16 54 12 77 77 NNE 6 9 30.12 1020 10 16.09344 0 0
9:35 am 09:35 Sunny 63 17 55 13 77 77 NE 5 7 30.12 1020 10 16.09344 0 0
9:55 am 09:55 Sunny 64 18 55 13 73 73 Calm 30.09 1019 10 16.09344 0 0
10:15 am 10:15 Sunny 68 20 57 14 69 69 Calm 30.09 1019 10 16.09344 0 0
10:35 am 10:35 Sunny 68 20 59 15 73 73 ESE 5 7 30.09 1019 10 16.09344 0 0
10:55 am 10:55 Sunny 70 21 59 15 69 69 Calm 30.09 1019 10 16.09344 0 0
11:15 am 11:15 Sunny 70 21 59 15 69 69 Calm 30.09 1019 10 16.09344 0 0
11:35 am 11:35 Sunny 72 22 59 15 65 65 SE 3 6 30.06 1018 10 16.09344 0 0
11:55 am 11:55 Sunny 73 23 61 16 65 65 SE 5 7 30.06 1018 10 16.09344 0 0
12:15 pm 12:15 Sunny 73 23 61 16 65 65 SSE 5 7 30.06 1018 10 16.09344 0 0
12:35 pm 12:35 Sunny 77 25 63 17 61 61 SSW 5 7 30.03 1017 10 16.09344 0 0
12:55 pm 12:55 Sunny 79 26 63 17 58 58 SW 5 7 30.03 1017 10 16.09344 0 0
1:15 pm 13:15 Sunny 81 27 63 17 54 54 SW 3 6 30.03 1017 10 16.09344 0 0
1:35 pm 13:35 Sunny 82 28 64 18 55 55 S 8 13 30 1016 10 16.09344 0 0
1:55 pm 13:55 Sunny 84 29 64 18 51 51 S 8 13 30 1016 10 16.09344 0 0
2:15 pm 14:15 Sunny 86 30 64 18 49 49 SSW 8 13 30 1016 10 16.09344 0 0
2:35 pm 14:35 Sunny 88 31 64 18 46 46 S 7 11 29.94 1014 10 16.09344 0 0
2:55 pm 14:55 Sunny 88 31 66 19 49 49 S 8 13 29.94 1014 10 16.09344 0 0
3:15 pm 15:15 Sunny 90 32 66 19 46 46 SSW 10 17 29.94 1014 10 16.09344 0 0
3:35 pm 15:35 Sunny 91 33 66 19 44 44 SW 13 20 29.91 1013 10 16.09344 0 0
3:55 pm 15:55 Sunny 91 33 66 19 44 44 SW 10 17 29.91 1013 10 16.09344 0 0
4:15 pm 16:15 Sunny 91 33 66 19 44 44 S 12 19 29.91 1013 10 16.09344 0 0
4:35 pm 16:35 Sunny 91 33 66 19 44 44 SSW 8 13 29.88 1012 10 16.09344 0 0
4:55 pm 16:55 Sunny 91 33 66 19 44 44 SW 10 17 29.88 1012 10 16.09344 0 0
5:15 pm 17:15 Sunny 91 33 64 18 41 41 SW 8 13 29.88 1012 10 16.09344 0 0
5:35 pm 17:35 Sunny 91 33 64 18 41 41 WSW 10 17 29.88 1012 10 16.09344 0 0
5:55 pm 17:55 Sunny 91 33 63 17 38 38 SW 9 15 29.88 1012 10 16.09344 0 0
6:15 pm 18:15 Partly Cloudy 90 32 63 17 41 41 WSW 3 6 29.88 1012 10 16.09344 0 0
6:35 pm 18:35 Mostly Cloudy 88 31 64 18 46 46 W 3 6 29.91 1013 10 16.09344 0 0
6:55 pm 18:55 Partly Cloudy 88 31 64 18 46 46 WNW 3 6 29.91 1013 10 16.09344 0 0
7:15 pm 19:15 Mostly Cloudy 86 30 64 18 49 49 NW 10 17 29.91 1013 10 16.09344 0 0
7:35 pm 19:35 Mostly Cloudy 82 28 63 17 51 51 N 21 33 29.97 1015 10 16.09344 0 0
7:55 pm 19:55 Partly Cloudy 81 27 63 17 54 54 N 15 24 29.97 1015 10 16.09344 0 0
8:15 pm 20:15 Partly Cloudy 79 26 63 17 58 58 N 12 19 29.97 1015 10 16.09344 0 0
8:35 pm 20:35 Mostly Cloudy 79 26 64 18 61 61 N 15 24 30 1016 10 16.09344 0 0
8:55 pm 20:55 Partly Cloudy 77 25 64 18 65 65 N 14 22 30 1016 10 16.09344 0 0
9:15 pm 21:15 Clear 73 23 63 17 69 69 NNE 10 17 30 1016 10 16.09344 0 0
9:35 pm 21:35 Clear 73 23 63 17 69 69 NNE 8 13 30.06 1018 10 16.09344 0 0
9:55 pm 21:55 Clear 72 22 63 17 73 73 NNE 7 11 30.06 1018 10 16.09344 0 0
10:15 pm 22:15 Mostly Cloudy with Light Rain 72 22 64 18 78 78 ENE 8 13 30.03 1017 10 16.09344 0 0
10:35 pm 22:35 Mostly Cloudy 70 21 64 18 83 83 ENE 8 13 30.03 1017 10 16.09344 0 0
10:55 pm 22:55 Mostly Cloudy 70 21 64 18 83 83 NNW 5 7 30.03 1017 10 16.09344 0 0
11:15 pm 23:15 Partly Cloudy 70 21 64 18 83 83 Calm 30.03 1017 10 16.09344 0 0
11:35 pm 23:35 Partly Cloudy 70 21 64 18 83 83 Calm 30.03 1017 10 16.09344 0 0
11:55 pm 23:55 Partly Cloudy 68 20 64 18 88 88 S 5 7 30.03 1017 10 16.09344 0 0

Powered by AerisWeather